Weather observations for the past three days for
Gillespie Field Airport
Imperial (Metric)
Date Time (pdt) Wind (mph) Vis. (mi.) Weather Sky Cond. Temperature (ºF) Relative Humidity Wind Chill (°F) Heat Index (°F) Pressure Precipitation (in)
Air Dwpt 6 hour altimeter (in) sea level (mb) 1 hr 3 hr 6 hr
Max. Min.
20 16:47 W 10 10.00 Clear SKC 91.4 53.6 28% 89 29.87 0.0
20 15:47 W 12 G 18 10.00 Clear SKC 93.2 53.6 26% 91 29.88 0.0
20 14:47 NW 13 10.00 Clear SKC 95 53.6 25% 93 29.9 0.0
20 13:47 W 12 G 18 10.00 Clear SKC 95 57.2 28% 94 29.91 0.0
20 12:47 W 12 10.00 Clear SKC 93.2 57.2 30% 92 29.92 0.0
20 11:47 Vrbl 6 10.00 Clear SKC 93.2 62.6 36% 94 29.93 0.0
20 10:47 Calm 10.00 Clear SKC 87.8 62.6 43% 88 29.95 0.0
20 09:47 Calm 10.00 Clear SKC 82.4 62.6 51% 83 29.95 0.0
20 08:47 Calm 10.00 Clear SKC 75.2 62.6 65% 77 29.95 0.0
20 07:47 Calm 10.00 Clear SKC 69.8 62.6 78% 29.95 0.0
20 06:47 Calm 10.00 Clear SKC 66.2 62.6 88% 29.94 0.0
20 06:35 Calm 10.00 Fair CLR 66.2 60.8 83% 29.93 0.0
20 06:15 Calm 10.00 Fair CLR 66.2 60.8 83% 29.92 0.0
20 05:55 Calm 10.00 Fair CLR 66.2 60.8 83% 29.92 0.0
20 05:35 NW 3 10.00 Fair CLR 66.2 60.8 83% 29.91 0.0
20 05:15 Calm 10.00 Fair CLR 66.2 60.8 83% 29.91 0.0
20 04:55 NW 3 10.00 Fair CLR 66.2 60.8 83% 29.91 0.0
20 04:35 Calm 10.00 Fair CLR 66.2 62.6 88% 29.91 0.0
20 04:15 Calm 10.00 Fair CLR 66.2 62.6 88% 29.9 0.0
20 03:55 Calm 10.00 Fair CLR 68 62.6 83% 29.9 0.0
20 03:35 Calm 10.00 Fair CLR 68 62.6 83% 29.91 0.0
20 03:15 NW 5 10.00 Fair CLR 68 62.6 83% 29.91 0.0
20 02:55 Calm 10.00 Fair CLR 68 62.6 83% 29.9 0.0
20 02:35 Calm 10.00 Fair CLR 69.8 62.6 78% 29.9 0.0
20 02:15 Calm 10.00 Fair CLR 69.8 62.6 78% 29.91 0.0
20 01:55 NW 3 10.00 Fair CLR 69.8 62.6 78% 29.91 0.0
20 01:35 Calm 10.00 Fair CLR 69.8 62.6 78% 29.91 0.0
20 01:15 Calm 10.00 Fair CLR 69.8 62.6 78% 29.91 0.0
20 00:55 Calm 10.00 Fair CLR 69.8 62.6 78% 29.92 0.0
20 00:35 Calm 10.00 Fair CLR 69.8 62.6 78% 29.92 0.0
20 00:15 Calm 10.00 Fair CLR 71.6 62.6 73% 29.92 0.0
19 23:55 Calm 10.00 Fair CLR 71.6 62.6 73% 29.92 0.0
19 23:35 Calm 10.00 Fair CLR 71.6 62.6 73% 29.92 0.0
19 23:15 Calm 10.00 Fair CLR 73.4 62.6 69% 29.93 0.0
19 22:55 NW 7 10.00 Fair CLR 73.4 62.6 69% 29.93 0.0
19 22:35 Calm 10.00 Fair CLR 75.2 62.6 65% 77 29.93 0.0
19 22:15 NW 5 10.00 Fair CLR 75.2 62.6 65% 77 29.92 0.0
19 21:55 NW 5 10.00 Fair CLR 75.2 62.6 65% 77 29.92 0.0
19 21:35 NW 3 10.00 Fair CLR 77 62.6 61% 79 29.92 0.0
19 21:15 NW 5 10.00 Fair CLR 77 62.6 61% 79 29.91 0.0
19 20:55 NW 5 10.00 Fair CLR 77 62.6 61% 79 29.91 0.0
19 20:47 W 7 10.00 Clear SKC 78.8 64.4 61% 81 29.93 0.0
19 19:47 W 7 10.00 Clear SKC 82.4 64.4 55% 84 29.92 0.0
19 18:47 W 12 10.00 Clear SKC 86 60.8 43% 86 29.9 0.0
19 17:47 W 8 10.00 Clear SKC 86 60.8 43% 86 29.91 0.0
19 16:47 W 10 10.00 Clear SKC 87.8 64.4 46% 89 29.91 0.0
19 15:47 W 8 10.00 Clear SKC 87.8 64.4 46% 89 29.92 0.0
19 14:47 W 9 10.00 Clear SKC 87.8 64.4 46% 89 29.95 0.0
19 13:47 SW 10 10.00 Clear SKC 86 64.4 49% 87 29.97 0.0
19 12:47 S 8 10.00 Clear SKC 86 64.4 49% 87 29.97 0.0
19 11:47 SW 9 10.00 Clear SKC 89.6 64.4 43% 91 29.98 0.0
19 10:47 Vrbl 7 10.00 Clear SKC 86 64.4 49% 87 29.99 0.0
19 09:47 Calm 10.00 Clear SKC 78.8 64.4 61% 81 29.99 0.0
19 08:47 Calm 10.00 Clear SKC 71.6 62.6 73% 30 0.0
19 07:47 Calm 10.00 Clear SKC 68 60.8 78% 30 0.0
19 06:47 Calm 10.00 Clear SKC 64.4 60.8 88% 29.99 0.0
19 06:35 Calm 10.00 Fair CLR 64.4 60.8 88% 29.97 0.0
19 06:15 Calm 10.00 Fair CLR 64.4 60.8 88% 29.97 0.0
19 05:55 W 3 10.00 Fair CLR 64.4 60.8 88% 29.97 0.0
19 05:35 Calm 10.00 Fair CLR 64.4 60.8 88% 29.96 0.0
19 05:15 NW 3 10.00 Fair CLR 64.4 60.8 88% 29.96 0.0
19 04:55 W 5 10.00 Fair CLR 64.4 60.8 88% 29.96 0.0
19 04:35 Calm 10.00 Fair CLR 64.4 60.8 88% 29.96 0.0
19 04:15 W 5 10.00 Fair CLR 64.4 60.8 88% 29.96 0.0
19 03:55 W 3 10.00 Fair CLR 64.4 60.8 88% 29.96 0.0
19 03:35 Calm 10.00 Fair CLR 64.4 60.8 88% 29.96 0.0
19 03:15 W 3 10.00 Fair CLR 64.4 60.8 88% 29.96 0.0
19 02:55 NW 5 10.00 Fair CLR 64.4 60.8 88% 29.96 0.0
19 02:35 W 5 10.00 Fair CLR 64.4 60.8 88% 29.97 0.0
19 02:15 NW 5 10.00 Fair CLR 66.2 60.8 83% 29.97 0.0
19 01:55 NW 5 10.00 Fair CLR 66.2 60.8 83% 29.97 0.0
19 01:35 NW 5 10.00 Fair CLR 66.2 60.8 83% 29.97 0.0
19 01:15 NW 5 10.00 Fair CLR 66.2 60.8 83% 29.97 0.0
19 00:55 W 5 10.00 Fair CLR 66.2 60.8 83% 29.98 0.0
19 00:35 W 5 10.00 Fair CLR 66.2 60.8 83% 29.98 0.0
19 00:15 NW 6 10.00 Fair CLR 66.2 60.8 83% 29.98 0.0
18 23:55 NW 6 10.00 Fair CLR 68 60.8 78% 29.99 0.0
18 23:35 NW 3 10.00 Fair CLR 68 60.8 78% 29.99 0.0
18 23:15 NW 6 10.00 Fair CLR 68 60.8 78% 29.99 0.0
18 22:55 Calm 10.00 Fair CLR 68 60.8 78% 29.99 0.0
18 22:35 W 3 10.00 Fair CLR 69.8 60.8 73% 29.99 0.0
18 22:15 NW 3 10.00 Fair CLR 69.8 60.8 73% 29.98 0.0
18 21:55 W 5 10.00 Fair CLR 69.8 60.8 73% 29.98 0.0
18 21:35 W 5 10.00 Fair CLR 69.8 60.8 73% 29.98 0.0
18 21:15 SW 5 10.00 Fair CLR 69.8 60.8 73% 29.97 0.0
18 20:55 SW 3 10.00 Fair CLR 71.6 60.8 69% 29.96 0.0
18 20:47 Calm 10.00 Clear SKC 71.6 60.8 69% 29.98 0.0
18 19:47 Calm 10.00 Clear SKC 73.4 60.8 65% 29.96 0.0
18 18:47 SW 9 10.00 Clear SKC 75.2 62.6 65% 77 29.96 0.0
18 16:47 SW 12 10.00 Partly Cloudy SCT120 80.6 62.6 54% 82 29.96 0.0
18 15:47 W 8 10.00 Clear SKC 84.2 64.4 51% 86 29.96 0.0
18 14:47 SW 8 10.00 Clear SKC 82.4 62.6 51% 83 29.96 0.0
18 13:47 SW 9 10.00 Clear SKC 84.2 62.6 48% 85 29.97 0.0
18 12:47 SW 13 10.00 Clear SKC 84.2 62.6 48% 85 29.97 0.0
18 11:47 Vrbl 5 10.00 Clear SKC 86 64.4 49% 87 29.97 0.0
18 10:47 Calm 10.00 Clear SKC 78.8 62.6 58% 80 29.98 0.0
18 09:47 Calm 10.00 Clear SKC 73.4 62.6 69% 29.99 0.0
18 08:47 Calm 10.00 Clear SKC 69.8 62.6 78% 29.99 0.0
18 07:47 Calm 7.00 Overcast OVC012 66.2 60.8 83% 29.99 0.0
18 06:47 NW 5 7.00 Overcast OVC011 66.2 60.8 83% 29.97 0.0
18 06:35 Calm 10.00 Overcast OVC011 66.2 60.8 83% 29.95 0.0
18 06:15 NW 3 10.00 Overcast OVC011 64.4 59 83% 29.95 0.0
18 05:55 NW 5 10.00 Overcast OVC012 64.4 60.8 88% 29.94 0.0
18 05:35 NW 3 10.00 Overcast OVC012 64.4 60.8 88% 29.94 0.0
18 05:15 W 3 10.00 Overcast OVC012 64.4 59 83% 29.94 0.0
18 04:55 NW 3 10.00 Overcast OVC012 64.4 60.8 88% 29.93 0.0
18 04:35 W 3 10.00 Overcast OVC013 64.4 59 83% 29.94 0.0
18 04:15 Calm 10.00 Overcast OVC013 64.4 59 83% 29.93 0.0
18 03:55 NW 5 10.00 Mostly Cloudy BKN013 64.4 60.8 88% 29.93 0.0
18 03:35 NW 5 10.00 Mostly Cloudy BKN013 64.4 60.8 88% 29.93 0.0
18 03:15 W 3 10.00 Mostly Cloudy BKN013 64.4 60.8 88% 29.94 0.0
18 02:55 W 5 10.00 Partly Cloudy SCT013 64.4 60.8 88% 29.94 0.0
18 02:35 NW 5 10.00 Fair CLR 66.2 60.8 83% 29.94 0.0
18 02:15 NW 5 10.00 Fair CLR 66.2 60.8 83% 29.94 0.0
18 01:55 NW 3 10.00 Fair CLR 66.2 60.8 83% 29.94 0.0
18 01:35 NW 3 10.00 Fair CLR 66.2 60.8 83% 29.94 0.0
18 01:15 Calm 10.00 Fair CLR 66.2 60.8 83% 29.94 0.0
18 00:55 W 3 10.00 Fair CLR 66.2 60.8 83% 29.95 0.0
18 00:35 W 3 10.00 Fair CLR 66.2 60.8 83% 29.95 0.0
18 00:15 W 5 10.00 Fair CLR 66.2 60.8 83% 29.96 0.0
17 23:55 NW 5 10.00 Fair CLR 66.2 60.8 83% 29.96 0.0
17 23:35 W 5 10.00 Fair CLR 66.2 60.8 83% 29.96 0.0
17 23:15 W 5 10.00 Fair CLR 66.2 60.8 83% 29.96 0.0
17 22:55 W 6 10.00 Fair CLR 66.2 60.8 83% 29.96 0.0
17 22:35 W 6 10.00 Fair CLR 68 60.8 78% 29.96 0.0
17 22:15 NW 5 10.00 Fair CLR 68 60.8 78% 29.96 0.0
17 21:55 W 6 10.00 Fair CLR 68 60.8 78% 29.96 0.0
17 21:35 Calm 10.00 Fair CLR 68 60.8 78% 29.95 0.0
17 21:15 W 6 10.00 Fair CLR 69.8 60.8 73% 29.95 0.0
17 20:55 SW 5 10.00 Fair CLR 69.8 60.8 73% 29.95 0.0
17 20:47 SW 6 10.00 Clear SKC 69.8 60.8 73% 29.96 0.0
17 19:55 SW 7 10.00 Clear SKC 71.6 60.8 69% 29.94 0.0
17 18:47 SW 9 10.00 Clear SKC 77 62.6 61% 79 29.92 0.0
17 17:47 SW 8 10.00 Clear SKC 80.6 62.6 54% 82 29.91 0.0
Date Time (pdt) Wind (mph) Vis. (mi.) Weather Sky Cond. Air Dwpt Max. Min. Relative Humidity Wind Chill (°F) Heat Index (°F) altimeter (in) sea level (mb) 1 hr 3 hr 6 hr
6 hour
Temperature (ºF) Pressure Precipitation (in)